Hourly Data Report for June 08, 2021

OTTAWA INTL A
ONTARIO
Current Station Operator: NAVCAN

45°19'00.000" N
75°40'00.000" W
114.90 m
6106001
71628
YOW

Download Data

Hourly Data (June 2021)
Hourly Data Report for June 8, 2021
TIME
LST
Temp Definition
°C
Dew Point Definition
°C
Rel Hum Definition
%
Precip. Amount Definition
mm

Wind Dir Definition
10's deg

Wind Spd Definition
km/h
Visibility Definition
km
Stn Press Definition
kPa
Hmdx Definition


Wind Chill Definition


Weather Definition


00:00 23.6 19.3 77   23 13 24.1 100.00 31   LegendNANA
01:00 22.0 19.3 84   28 4 24.1 100.03 29   Mainly Clear
02:00 21.9 19.4 85   22 7 24.1 100.05 29   LegendNANA
03:00 21.7 19.4 87   22 9 24.1 100.08 29   LegendNANA
04:00 21.7 19.6 88   22 10 24.1 100.07 29   Mostly Cloudy
05:00 22.0 19.8 87   21 11 24.1 100.10 29   LegendNANA
06:00 22.6 19.9 85   21 10 24.1 100.12 30   LegendNANA
07:00 24.9 20.5 76   22 13 24.1 100.18 33   Mostly Cloudy
08:00 25.9 20.8 73   21 17 24.1 100.22 34   LegendNANA
09:00 28.4 21.7 67   22 14 24.1 100.19 37   LegendNANA
10:00 28.8 21.3 63   23 14 24.1 100.18 37   Mostly Cloudy
11:00 30.1 21.6 60   22 15 24.1 100.16 39   LegendNANA
12:00 29.7 21.8 62   23 21 24.1 100.16 39   LegendNANA
13:00 29.3 21.6 62   22 23 24.1 100.12 38   Mostly Cloudy
14:00 29.5 22.0 63   23 17 24.1 100.07 39   LegendNANA
15:00 29.8 21.7 61   22 18 24.1 100.01 39   LegendNANA
16:00 30.5 21.6 58   26 20 24.1 99.96 39   Mostly Cloudy
17:00 29.7 21.9 63   23 17 24.1 99.94 39   LegendNANA
18:00 27.9 21.5 68   22 17 24.1 100.00 37   LegendNANA
19:00 27.1 21.1 70   21 14 24.1 100.02 36   Mostly Cloudy
20:00 25.4 21.3 77   20 11 24.1 100.01 34   LegendNANA
21:00 24.2 21.3 84   22 12 24.1 100.05 33   LegendNANA
22:00 23.4 21.2 87   20 12 24.1 100.07 32   Mostly Cloudy
23:00 23.0 21.3 90   22 10 24.1 100.10 32   LegendNANA

Notes on Data Quality.

Legend

  • E = Estimated
  • M = Missing
  • NA = Not Available*
  • [empty] = Indicates an unobserved value
Date modified: